027  
ASUS44 KEWX 280911  
RWRTX  
SOUTH TEXAS REGIONAL WEATHER ROUNDUP  
NATIONAL WEATHER SERVICE AUSTIN/SAN ANTONIO TX  
400 AM CDT THU MAY 28 2015  
 
NOTE: "FAIR" INDICATED FEW OR NO CLOUDS BELOW 12,000 FEET WITH NO  
SIGNIFICANT WEATHER AND/OR S TO VISIBILITY
.  
 
* - THESE STATIONS ARE NOT NWS OR FAA STATIONS...AND ARE NOT SUBJECT  
TO NWS AND FAA QUALITY CONTROL.
 
 
TXZ171-172-183>190-281000-  
TEXAS HILL COUNTRY AND EDWARDS PLATEAU  
 
CITY SKY/WX TMP DP RH WIND PRES REMARKS
 
JUNCTION CLOUDY 74 68 81 S12 30.04R  
*LLANO CLOUDY 73 72 94 S5 30.06F  
BURNET CLOUDY 72 69 90 VRB3 30.07S  
*HORSESHOE BAY PTCLDY 72 69 92 SE3 30.04F  
*KERRVILLE CLOUDY 73 69 89 SE9 30.05F  
*FREDERICKSBRG CLOUDY 72 68 88 S9 30.05F  
*ROCKSPRINGS CLOUDY 72 70 94 SE12 30.06F FOG  
*BOERNE STAGE N/A 72 70 94 S6 30.06S  
*CASTROVILLE CLOUDY 75 73 94 SE8 30.02F  
HONDO CLOUDY 75 72 90 SE8 30.03F  
*UVALDE DRIZZLE 74 72 91 SE9 30.00F  
DEL RIO CLOUDY 77 72 84 SE10 29.96R  
LAUGHLIN AFB MOCLDY 75 74 95 SE12 29.97S  
CARRIZO SPRGS CLOUDY 77 72 83 SE9 29.96F  

 
 
TXZ173-191>194-202-209-217>225-228-281000-  
CENTRAL AND SOUTH CENTRAL TEXAS  
 
CITY SKY/WX TMP DP RH WIND PRES REMARKS
 
GEORGETOWN CLOUDY 75 72 88 S9 30.03S  
AUSTIN/BERGSTM CLOUDY 74 72 93 S6 30.03S  
AUSTIN/MABRY CLOUDY 75 71 87 S5 30.04S  
*AUSTIN/EXEC CLOUDY 73 73 100 CALM 30.05R  
*LAGO VISTA CLOUDY 73 71 92 S6 30.06S  
SAN MARCOS NOT AVBL  
NEW BRAUNFELS CLOUDY 76 73 91 S12 30.01F  
RANDOLPH AFB CLOUDY 75 73 94 SE10 30.02F  
PT SAN ANTONIO CLOUDY 75 74 94 SE9 30.01S  
SAN ANTONIO CLOUDY 76 72 87 SE13 30.03S  
STINSON FIELD CLOUDY 76 73 91 SE12 30.00F  
*PLEASANTON CLOUDY 75 73 92 E6 30.00F FOG  
*LA GRANGE N/A 74 73 97 CALM 30.02S FOG  
*GIDDINGS PTCLDY 72 70 94 S3 30.07S  
*GONZALES CLOUDY 74 74 100 SE3 30.02S  

 
 
TXZ163>164-176>182-195>201-210>213-226-227-235-281000-  
SOUTHEAST TEXAS  
 
CITY SKY/WX TMP DP RH WIND PRES REMARKS
 
COLLEGE STN CLEAR 72 70 93 SE5 30.03F  
*BRYAN CLEAR 71 70 98 SE3 30.05S  
*CALDWELL CLOUDY 72 72 100 S8 30.06S  
*CROCKETT NOT AVBL  
*BRENHAM CLEAR 73 72 96 CALM 30.04F  
HUNTSVILLE MOCLDY 73 70 90 CALM 30.05S  
CONROE PTCLDY 70 69 97 CALM 30.05R  
HOUSTON BUSH PTCLDY 72 71 97 CALM 30.03S  
HOUSTON HOBBY PTCLDY 74 72 93 CALM 30.03S  
*HOUSTON SW AP CLEAR 72 72 100 CALM 30.04S  
PEARLAND CLEAR 74 71 91 CALM 30.04S  
HOUSTON HOOKS CLEAR 71 69 93 CALM 30.04S  
ELLINGTON FLD NOT AVBL  
SUGAR LAND CLEAR 74 72 93 CALM 30.04R  
*HOUSTON EXEC CLEAR 72 72 100 CALM 30.05S  
*CLEVELAND MUN FOG 69 68 99 CALM 30.05F VSB 3/4  
*WHARTON CLOUDY 73 72 97 CALM 30.04S  
*COLUMBUS CLOUDY 72 72 98 SE5 30.03S  

 
 
TXZ214>216-236>238-281000-  
THE UPPER TEXAS COAST  
 
CITY SKY/WX TMP DP RH WIND PRES REMARKS
 
*ORANGE FOG 70 68 95 CALM 30.06S VSB 1  
PORT ARTHUR CLEAR 72 71 97 SE3 30.04R  
GALVESTON CLEAR 77 74 90 SE8 30.04S  
ANGLETON CLEAR 70 70 100 CALM 30.03R  
*BAY CITY CLOUDY 75 75 100 CALM 30.03R  
PALACIOS CLOUDY 79 76 90 SE8 30.01S  

 
 
TXZ229>234-239>247-281000-  
TEXAS COASTAL BEND AND RIO GRANDE PLAINS  
 
CITY SKY/WX TMP DP RH WIND PRES REMARKS
 
VICTORIA CLOUDY 75 75 100 E5 30.02F  
*BEEVILLE CLOUDY 77 77 100 E6 29.99F FOG  
ROCKPORT CLOUDY 82 76 81 SE13 29.98F  
*PORT ARANSAS CLOUDY 80 77 90 SE10G17 29.98F  
*PORT LAVACA CLOUDY 76 75 96 SE3 30.02S  
*INGLESIDE MOCLDY 82 77 84 SE10G18 29.98S  
CORPUS CHRISTI MOCLDY 80 76 87 SE9 29.97F  
CORPUS NAS CLOUDY 81 77 88 SE14 29.97F  
*ROBSTOWN MOCLDY 80 80 100 SE7 29.97F FOG  
ALICE CLOUDY 79 76 90 SE7 29.95F FOG  
KINGSVILLE NAS CLOUDY 80 79 96 SE9 29.96F  
COTULLA CLOUDY 78 74 87 SE8 29.97F  
*FAITH RANCH N/A 77 73 88 SE8 29.96F  
LAREDO CLEAR 77 74 90 SE10 29.95F  

 
 
TXZ248>255-281000-  
DEEP SOUTH TEXAS  
 
CITY SKY/WX TMP DP RH WIND PRES REMARKS
 
BROWNSVILLE CLOUDY 81 77 88 SE13 29.96F  
PORT ISABEL CLOUDY 80 77 90 SE15 29.95F  
*SOUTH PADRE N/A -24 -24 100 SW15 29.97F WCI -50  
HARLINGEN CLOUDY 81 78 91 SE12 29.95F  
*HEBBRONVILLE N/A 77 74 91 SE13 29.96F FOG  
MCALLEN CLOUDY 82 77 84 SE7 29.95F HX 90  
*WESLACO CLOUDY 79 75 87 SE8 29.95F  
FALFURRIAS MOCLDY 78 76 92 SE3 29.95F  
EDINBURG CLOUDY 81 77 88 SE5 29.96F FOG  
*ZAPATA CLOUDY 77 76 96 SE7 29.93F FOG  

 
 
TXZ213>215-236>238-242>244-246-247-251-254-255-281000-  
CMAN STATIONS  
 
STATION/POSITION TIME TEMP WIND PRES WAVE
 
AIR SEA DIR/SP/G HT/PER  
(UTC) (F) (DEG/KT/KT) (MB) (FT/S)  

 
 
GMZ080-GMZ150>470-281000-  
OFFSHORE BUOY REPORTS  
 
STATION/POSITION TIME TEMP WIND PRES WAVE
 
AIR SEA DIR/SP/G HT/PER  
(UTC) (F) (DEG/KT/KT) (MB) (FT/S)  

 
 
CLICK HERE TO GO TO PREVIOUS BULLETINS.

The Nexlab TX Page Main Text Page